Location: Quedlinburg
(51.7921°N, 11.1414°E)
Time: 06:52:24
(UTC+02:00)

METEOR M2 - Pass Details

Date: 23 March 2026
Orbit: 817 x 824 km, 98.5° (Epoch: 17 April)

Event Time Altitude Azimuth Distance (km) Brightness Sun altitude
Rises 04:33:02 0° 16° (NNE) 3,375 ? -15.6°
Reaches altitude 10° 04:35:25 10° 20° (NNE) 2,437 ? -15.3°
Maximum altitude 04:40:47 66° 102° (ESE) 903 ? -14.5°
Drops below altitude 10° 04:46:07 10° 185° (S) 2,417 ? -13.8°
Sets 04:48:28 0° 188° (S) 3,344 ? -13.4°
